This is the latest recevied weather packets stored in our database for station/object F4GCF-13. If no packets are shown the sender has not sent any weather packets the latest 10 day(s).
| Time | Temp. | Humidity | Pressure | Rain* | Wind** | Luminosity | Snow |
|---|---|---|---|---|---|---|---|
| 1777651963 | 22.22° C | 53% | 1021 hPa | 0 mm | - | - | - |
| 1777651663 | 22.22° C | 54% | 1021 hPa | 0 mm | - | - | - |
| 1777651363 | 22.22° C | 54% | 1021 hPa | 0 mm | - | - | - |
| 1777651057 | 22.22° C | 56% | 1021 hPa | 0 mm | - | - | - |
| 1777650763 | 22.22° C | 55% | 1021 hPa | 0 mm | - | - | - |
| 1777650161 | 21.67° C | 54% | 1021 hPa | 0 mm | - | - | - |
| 1777649861 | 22.22° C | 56% | 1022 hPa | 0 mm | - | - | - |
| 1777649262 | 22.22° C | 59% | 1022 hPa | 0 mm | - | - | - |
| 1777648360 | 22.22° C | 61% | 1022 hPa | 0 mm | - | - | - |
| 1777648060 | 22.22° C | 59% | 1022 hPa | 0 mm | - | - | - |
| 1777647459 | 22.22° C | 62% | 1022 hPa | 0 mm | - | - | - |
| 1777647161 | 22.78° C | 64% | 1022 hPa | 0 mm | - | - | - |
| 1777646859 | 22.22° C | 64% | 1022 hPa | 0 mm | - | - | - |
| 1777646557 | 22.22° C | 68% | 1022 hPa | 0 mm | - | - | - |
| 1777646257 | 22.22° C | 69% | 1022 hPa | 0 mm | - | - | - |
| 1777645957 | 22.22° C | 70% | 1022 hPa | 0 mm | - | - | - |
| 1777645659 | 21.67° C | 71% | 1022 hPa | 0 mm | - | - | - |
| 1777645360 | 21.67° C | 71% | 1022 hPa | 0 mm | - | - | - |
| 1777644760 | 20.56° C | 73% | 1022 hPa | 0 mm | - | - | - |
| 1777644458 | 20.56° C | 74% | 1022 hPa | 0 mm | - | - | - |
| 1777644212 | 20.56° C | 77% | 1022 hPa | 0 mm | - | - | - |
| 1777644163 | 20.56° C | 77% | 1022 hPa | 0 mm | - | - | - |
| 1777643889 | 20.56° C | 76% | 1022 hPa | 0 mm | - | - | - |
| 1777643857 | 20.56° C | 76% | 1022 hPa | 0 mm | - | - | - |
| 1777643557 | 20° C | 76% | 1022 hPa | 0 mm | - | - | - |
* Rain latest hour (hover to see other rain measurements)
** Current wind speed in m/s (hover to see current wind gust speed)